Date,TemperatureHighF,TemperatureAvgF,TemperatureLowF,DewpointHighF,DewpointAvgF,DewpointLowF,HumidityHigh,HumidityAvg,HumidityLow,PressureMaxIn,PressureMinIn,WindSpeedMaxMPH,WindSpeedAvgMPH,GustSpeedMaxMPH,PrecipitationSumIn
2013-2-1,23,23,23,10,10,10,58,58,58,29.95,29.95,15,15,15,0.00
2013-2-2,28,26,23,21,16,6,78,65,48,30.12,29.93,5,2,5,0.00
2013-2-3,32,30,27,27,21,14,85,71,56,29.93,29.75,15,3,15,0.00
2013-2-4,33,33,33,19,19,19,55,55,55,29.81,29.81,0,0,0,0.00
2013-2-5,35,33,31,29,22,19,81,66,57,29.86,29.78,0,0,0,0.00
2013-2-8,41,40,40,31,29,29,68,66,65,29.76,29.76,11,10,11,0.00
2013-2-9,39,36,31,16,14,11,54,42,33,30.22,30.17,15,6,15,0.00
2013-2-11,41,40,38,39,37,35,91,90,90,29.90,29.89,0,0,0,0.00
2013-2-12,52,50,47,25,24,23,39,36,34,29.93,29.92,8,4,8,0.00
2013-2-13,44,37,33,31,29,27,93,73,53,29.77,29.63,2,1,2,0.10
2013-2-16,37,34,32,27,22,16,74,61,51,29.91,29.83,7,2,7,0.00
2013-2-19,50,45,40,39,36,32,74,71,66,29.81,29.67,16,5,16,0.00
2013-2-20,35,32,29,19,12,10,51,44,39,29.96,29.80,10,5,10,0.00
2013-2-21,35,29,24,15,14,10,62,52,40,30.27,30.12,11,3,11,0.00
2013-2-22,30,27,26,18,16,15,64,62,59,30.27,30.25,5,2,5,0.00
2013-2-23,33,33,33,27,27,26,77,77,76,30.11,30.08,2,1,2,0.00
2013-2-24,44,43,42,27,26,26,53,51,50,29.86,29.85,10,7,10,0.00
2013-2-26,40,39,31,38,36,22,94,90,68,30.09,29.58,11,3,11,0.61
2013-2-27,50,44,37,41,38,35,94,82,67,29.59,29.57,5,2,5,0.01
2013-2-28,41,40,39,29,27,25,66,60,54,29.68,29.60,6,3,6,0.00